Mary Alice — WCX9570 — position and weather

sailwx.info

Track history (hours):
 
Tides and Currents Weather Stations Pressure Air Temp Water Temp Dewpoint Dewpoint Depression Visibility Wind Speed Wind Dir Waves Ship Positions

Mary Alice

Owner: Donjon Marine Co., Inc., HILLSIDE, NJ. More information available from US FCC via Universal Licensing System and Coast Guard Vessel Documentation Center.

Last reported at 2014-Oct-21 06:33 UTC. Time now 2014-Oct-21 07:19 UTC.
Position N 40°40' W 074°04'.

Length 21 m; draft 5 m.

Type: Towing. MMSI: 366744020.

Date/timePositionNaut miles runAvg speedWind from/ knotsBaromVisibWave heightAir tempDewpointWater temp
2014-Oct-21 06:33N 40°40' W 074°04'1 0.9
2014-Oct-21 05:33N 40°39' W 074°05'4 4.2
2014-Oct-21 04:33N 40°41' W 074°10'2 2.3
2014-Oct-21 03:33N 40°39' W 074°09'4 3.7
2014-Oct-21 02:33N 40°40' W 074°04'0 0.0
2014-Oct-21 01:33N 40°40' W 074°04'0 0.0
2014-Oct-21 00:33N 40°40' W 074°04'0 0.0
2014-Oct-20 23:33N 40°40' W 074°04'0 0.0
2014-Oct-20 22:33N 40°40' W 074°04'0 0.0
2014-Oct-20 21:33N 40°40' W 074°04'0 0.0
2014-Oct-20 20:34N 40°40' W 074°04'0 0.0
2014-Oct-20 19:33N 40°40' W 074°04'0 0.0
2014-Oct-20 18:33N 40°40' W 074°04'0 0.0
2014-Oct-20 17:33N 40°40' W 074°04'0 0.0
2014-Oct-20 16:33N 40°40' W 074°04'0 0.0
2014-Oct-20 15:33N 40°40' W 074°04'0 0.0
2014-Oct-20 14:33N 40°40' W 074°04'0 0.0
2014-Oct-20 13:33N 40°40' W 074°04'0 0.0
2014-Oct-20 12:33N 40°40' W 074°04'0 0.0
2014-Oct-20 11:33N 40°40' W 074°04'0 0.0
2014-Oct-20 10:33N 40°40' W 074°04'3 2.8
2014-Oct-20 09:33N 40°39' W 074°07'3 2.9
2014-Oct-20 08:33N 40°41' W 074°08'0 0.0
2014-Oct-20 07:33N 40°41' W 074°08'0 0.0
2014-Oct-20 06:34N 40°41' W 074°08'0 0.0
2014-Oct-20 05:33N 40°41' W 074°08'0 0.0
2014-Oct-20 04:33N 40°41' W 074°08'0 0.0
2014-Oct-20 03:34N 40°41' W 074°08'0 0.0
2014-Oct-20 02:31N 40°41' W 074°08'0 0.0
2014-Oct-20 01:33N 40°41' W 074°08'0 0.0
2014-Oct-20 00:33N 40°41' W 074°08'0 0.0
2014-Oct-19 23:33N 40°41' W 074°08'0 0.0
2014-Oct-19 22:33N 40°41' W 074°08'0 0.0
2014-Oct-19 21:34N 40°41' W 074°08'0 0.1
2014-Oct-19 20:33N 40°42' W 074°08'0 0.0
2014-Oct-19 19:31N 40°42' W 074°08'0 0.0
2014-Oct-19 18:33N 40°42' W 074°08'0 0.0
2014-Oct-19 17:33N 40°42' W 074°08'0 0.0
2014-Oct-19 16:33N 40°42' W 074°08'5 4.5
2014-Oct-19 15:33N 40°39' W 074°04'1 1.4
2014-Oct-19 14:33N 40°40' W 074°04'3 3.3
2014-Oct-19 13:34N 40°40' W 074°08'2 1.7
2014-Oct-19 12:33N 40°41' W 074°08'4 3.7
2014-Oct-19 11:34N 40°39' W 074°05'10 2.3
2014-Oct-19 07:21N 40°31' W 073°58'5 5.8
2014-Oct-19 06:30N 40°35' W 074°02'6 6.4
2014-Oct-19 05:33N 40°41' W 074°02'9 8.6
2014-Oct-19 04:33N 40°49' W 073°58'4 0.5
2014-Oct-18 21:33N 40°46' W 074°01'9 9.0
2014-Oct-18 20:33N 40°37' W 074°03'10 3.1
2014-Oct-18 17:18N 40°29' W 073°54'6 6.9
2014-Oct-18 16:29N 40°31' W 074°01'4 4.5
2014-Oct-18 15:30N 40°36' W 074°02'1 0.8
2014-Oct-18 14:33N 40°36' W 074°03'8 7.5
2014-Oct-18 13:31N 40°44' W 074°01'13 1.6
2014-Oct-18 05:18N 40°56' W 073°54'4 1.3
2014-Oct-18 02:18N 40°52' W 073°56'5 6.9
2014-Oct-18 01:32N 40°47' W 073°59'7 7.2
2014-Oct-18 00:33N 40°41' W 074°02'9 6.7
2014-Oct-17 23:10N 40°32' W 074°00'5 7.2
2014-Oct-17 22:32N 40°29' W 073°55'7 6.9
2014-Oct-17 21:28N 40°23' W 073°51'5 5.2
2014-Oct-17 20:32N 40°28' W 073°53'7 6.3
2014-Oct-17 19:28N 40°31' W 074°00'6 6.1
2014-Oct-17 18:32N 40°36' W 074°03'6 6.0
2014-Oct-17 17:33N 40°42' W 074°02'8 1.1
2014-Oct-17 10:33N 40°49' W 073°58'8 8.1
2014-Oct-17 09:33N 40°42' W 074°02'7 6.6
2014-Oct-17 08:33N 40°35' W 074°02'9 2.3
2014-Oct-17 04:33N 40°29' W 073°54'5 4.9
2014-Oct-17 03:33N 40°31' W 073°59'5 5.5
2014-Oct-17 02:32N 40°36' W 074°03'6 5.9
2014-Oct-17 01:33N 40°42' W 074°02'6 5.9
2014-Oct-17 00:33N 40°47' W 073°60'2 0.4
2014-Oct-16 20:13N 40°49' W 073°58'711.0
2014-Oct-16 19:33N 40°42' W 074°02'5 4.8
2014-Oct-16 18:33N 40°41' W 074°08'1 0.2
2014-Oct-16 14:33N 40°40' W 074°08'6 6.2
2014-Oct-16 13:33N 40°43' W 074°01'1 1.1
2014-Oct-16 12:33N 40°44' W 074°01'13 6.3
2014-Oct-16 10:28N 40°31' W 074°00'9 3.7
2014-Oct-16 08:04N 40°26' W 073°51'4 5.8
2014-Oct-16 07:23N 40°29' W 073°54'5 6.0
2014-Oct-16 06:31N 40°31' W 074°01'6 5.6
2014-Oct-16 05:26N 40°37' W 074°03'5 6.0
2014-Oct-16 04:34N 40°42' W 074°02'14 2.0
2014-Oct-15 21:15N 40°56' W 073°54'2 2.5
2014-Oct-15 20:33N 40°54' W 073°55'9 8.7
2014-Oct-15 19:33N 40°46' W 074°00'16 7.8
2014-Oct-15 17:32N 40°31' W 073°58'9 6.9
2014-Oct-15 16:18N 40°23' W 073°52'3 3.4
2014-Oct-15 15:33N 40°26' W 073°51'5 5.3
2014-Oct-15 14:34N 40°29' W 073°55'6 5.6
2014-Oct-15 13:33N 40°33' W 074°02'9 6.8
2014-Oct-15 12:17N 40°41' W 074°02'6 7.9
2014-Oct-15 11:33N 40°47' W 074°00'7 7.4
2014-Oct-15 10:33N 40°53' W 073°56'2 0.5
2014-Oct-15 05:13N 40°56' W 073°54'0 0.2
2014-Oct-15 04:06N 40°56' W 073°54'1 1.7
2014-Oct-15 03:27N 40°55' W 073°55'6 7.1
2014-Oct-15 02:33N 40°49' W 073°58'7 7.0
2014-Oct-15 01:33N 40°43' W 074°02'7 6.6
2014-Oct-15 00:32N 40°39' W 074°09'3 3.1
2014-Oct-14 23:28N 40°42' W 074°09'0 0.0
2014-Oct-14 22:31N 40°42' W 074°09'0 0.0
2014-Oct-14 20:33N 40°42' W 074°09'1 1.1
2014-Oct-14 19:32N 40°41' W 074°08'0 0.3
2014-Oct-14 18:34N 40°41' W 074°08'2 1.7
2014-Oct-14 17:33N 40°40' W 074°09'3 2.6
2014-Oct-14 16:31N 40°38' W 074°12'0 0.0
2014-Oct-14 15:33N 40°38' W 074°12'2 2.4
2014-Oct-14 14:33N 40°39' W 074°09'2 1.4
2014-Oct-14 13:28N 40°41' W 074°09'0 0.0
2014-Oct-14 12:32N 40°41' W 074°09'0 0.0
2014-Oct-14 11:30N 40°41' W 074°09'0 0.1
2014-Oct-14 10:33N 40°41' W 074°09'0 0.0
2014-Oct-14 09:33N 40°41' W 074°09'1 0.7
2014-Oct-14 08:29N 40°41' W 074°09'2 1.6
2014-Oct-14 07:31N 40°40' W 074°09'4 3.7
2014-Oct-14 06:33N 40°40' W 074°04'1 1.2
2014-Oct-14 05:32N 40°41' W 074°04'1 1.0
2014-Oct-14 04:24N 40°40' W 074°04'3 2.9
2014-Oct-14 03:18N 40°41' W 074°08'1 0.7
2014-Oct-14 01:26N 40°42' W 074°09'0 0.0
2014-Oct-13 22:28N 40°42' W 074°09'0 0.0
2014-Oct-13 21:15N 40°42' W 074°09'0 0.0
2014-Oct-13 19:22N 40°42' W 074°09'1 1.0
2014-Oct-13 18:31N 40°42' W 074°08'4 3.6
2014-Oct-13 17:31N 40°39' W 074°05'6 6.8
2014-Oct-13 16:33N 40°45' W 074°01'7 7.0
2014-Oct-13 15:34N 40°51' W 073°57'5 4.7
2014-Oct-13 14:33N 40°56' W 073°55'7 7.4
2014-Oct-13 13:33N 40°49' W 073°58'7 7.1
2014-Oct-13 12:34N 40°42' W 074°02'7 6.8
2014-Oct-13 11:30N 40°35' W 074°02'7 6.8
2014-Oct-13 10:32N 40°30' W 073°56'7 7.1
2014-Oct-13 09:33N 40°24' W 073°52'4 4.1
2014-Oct-13 08:33N 40°28' W 073°52'8 8.4
2014-Oct-13 07:34N 40°33' W 074°01'8 7.3
2014-Oct-13 06:24N 40°41' W 074°02'5 6.1
2014-Oct-13 05:33N 40°46' W 074°00'10 3.1
2014-Oct-13 02:30N 40°55' W 073°55'7 7.7
2014-Oct-13 01:32N 40°48' W 073°59'7 6.8
2014-Oct-13 00:32N 40°41' W 074°02'10 6.9
2014-Oct-12 23:08N 40°31' W 074°00'6 2.2
2014-Oct-12 20:26N 40°28' W 073°54'8 8.3
2014-Oct-12 19:31N 40°33' W 074°02'8 7.7
2014-Oct-12 18:33N 40°40' W 074°03'6 6.2
2014-Oct-12 17:33N 40°46' W 074°00'1 0.2
2014-Oct-12 13:28N 40°47' W 073°60'7 7.5
2014-Oct-12 12:31N 40°40' W 074°03'9 7.5
2014-Oct-12 11:22N 40°32' W 074°00'11 5.8
2014-Oct-12 09:30N 40°24' W 073°51'6 6.8
2014-Oct-12 08:34N 40°29' W 073°55'8 8.4
2014-Oct-12 07:33N 40°35' W 074°02'8 7.8
2014-Oct-12 06:34N 40°43' W 074°01'7 6.4
2014-Oct-12 05:32N 40°49' W 073°58'7 5.1
2014-Oct-12 04:06N 40°56' W 073°55'4 2.9
2014-Oct-12 02:32N 40°52' W 073°56'7 7.5
2014-Oct-12 01:33N 40°45' W 074°01'7 6.9
2014-Oct-12 00:34N 40°39' W 074°03'7 7.2
2014-Oct-11 23:33N 40°32' W 074°01'11 5.2
2014-Oct-11 21:29N 40°24' W 073°51'6 6.0
2014-Oct-11 20:29N 40°29' W 073°55'7 7.8
2014-Oct-11 19:33N 40°34' W 074°02'8 8.1
2014-Oct-11 18:33N 40°42' W 074°02'7 6.7
2014-Oct-11 17:30N 40°49' W 073°58'1 0.3
2014-Oct-11 14:27N 40°49' W 073°58'9 9.7
2014-Oct-11 13:33N 40°41' W 074°02'18 5.1
2014-Oct-11 10:09N 40°26' W 073°51'5 7.0
2014-Oct-11 09:30N 40°29' W 073°55'7 7.8
2014-Oct-11 08:33N 40°34' W 074°02'9 8.6
2014-Oct-11 07:33N 40°43' W 074°01'  
Track history (hours):
 
Tides and Currents Weather Stations Pressure Air Temp Water Temp Dewpoint Dewpoint Depression Visibility Wind Speed Wind Dir Waves Ship Positions

Mary Alice

Owner: Donjon Marine Co., Inc., HILLSIDE, NJ. More information available from US FCC via Universal Licensing System and Coast Guard Vessel Documentation Center.

Last reported at 2014-Oct-21 06:33 UTC. Time now 2014-Oct-21 07:19 UTC.
Position N 40°40' W 074°04'.

Length 21 m; draft 5 m.

Type: Towing. MMSI: 366744020.

Date/timePositionNaut miles runAvg speedWind from/ knotsBaromVisibWave heightAir tempDewpointWater temp
2014-Oct-21 06:33N 40°40' W 074°04'1 0.9
2014-Oct-21 05:33N 40°39' W 074°05'4 4.2
2014-Oct-21 04:33N 40°41' W 074°10'2 2.3
2014-Oct-21 03:33N 40°39' W 074°09'4 3.7
2014-Oct-21 02:33N 40°40' W 074°04'0 0.0
2014-Oct-21 01:33N 40°40' W 074°04'0 0.0
2014-Oct-21 00:33N 40°40' W 074°04'0 0.0
2014-Oct-20 23:33N 40°40' W 074°04'0 0.0
2014-Oct-20 22:33N 40°40' W 074°04'0 0.0
2014-Oct-20 21:33N 40°40' W 074°04'0 0.0
2014-Oct-20 20:34N 40°40' W 074°04'0 0.0
2014-Oct-20 19:33N 40°40' W 074°04'0 0.0
2014-Oct-20 18:33N 40°40' W 074°04'0 0.0
2014-Oct-20 17:33N 40°40' W 074°04'0 0.0
2014-Oct-20 16:33N 40°40' W 074°04'0 0.0
2014-Oct-20 15:33N 40°40' W 074°04'0 0.0
2014-Oct-20 14:33N 40°40' W 074°04'0 0.0
2014-Oct-20 13:33N 40°40' W 074°04'0 0.0
2014-Oct-20 12:33N 40°40' W 074°04'0 0.0
2014-Oct-20 11:33N 40°40' W 074°04'0 0.0
2014-Oct-20 10:33N 40°40' W 074°04'3 2.8
2014-Oct-20 09:33N 40°39' W 074°07'3 2.9
2014-Oct-20 08:33N 40°41' W 074°08'0 0.0
2014-Oct-20 07:33N 40°41' W 074°08'0 0.0
2014-Oct-20 06:34N 40°41' W 074°08'0 0.0
2014-Oct-20 05:33N 40°41' W 074°08'0 0.0
2014-Oct-20 04:33N 40°41' W 074°08'0 0.0
2014-Oct-20 03:34N 40°41' W 074°08'0 0.0
2014-Oct-20 02:31N 40°41' W 074°08'0 0.0
2014-Oct-20 01:33N 40°41' W 074°08'0 0.0
2014-Oct-20 00:33N 40°41' W 074°08'0 0.0
2014-Oct-19 23:33N 40°41' W 074°08'0 0.0
2014-Oct-19 22:33N 40°41' W 074°08'0 0.0
2014-Oct-19 21:34N 40°41' W 074°08'0 0.1
2014-Oct-19 20:33N 40°42' W 074°08'0 0.0
2014-Oct-19 19:31N 40°42' W 074°08'0 0.0
2014-Oct-19 18:33N 40°42' W 074°08'0 0.0
2014-Oct-19 17:33N 40°42' W 074°08'0 0.0
2014-Oct-19 16:33N 40°42' W 074°08'5 4.5
2014-Oct-19 15:33N 40°39' W 074°04'1 1.4
2014-Oct-19 14:33N 40°40' W 074°04'3 3.3
2014-Oct-19 13:34N 40°40' W 074°08'2 1.7
2014-Oct-19 12:33N 40°41' W 074°08'4 3.7
2014-Oct-19 11:34N 40°39' W 074°05'10 2.3
2014-Oct-19 07:21N 40°31' W 073°58'5 5.8
2014-Oct-19 06:30N 40°35' W 074°02'6 6.4
2014-Oct-19 05:33N 40°41' W 074°02'9 8.6
2014-Oct-19 04:33N 40°49' W 073°58'4 0.5
2014-Oct-18 21:33N 40°46' W 074°01'9 9.0
2014-Oct-18 20:33N 40°37' W 074°03'10 3.1
2014-Oct-18 17:18N 40°29' W 073°54'6 6.9
2014-Oct-18 16:29N 40°31' W 074°01'4 4.5
2014-Oct-18 15:30N 40°36' W 074°02'1 0.8
2014-Oct-18 14:33N 40°36' W 074°03'8 7.5
2014-Oct-18 13:31N 40°44' W 074°01'13 1.6
2014-Oct-18 05:18N 40°56' W 073°54'4 1.3
2014-Oct-18 02:18N 40°52' W 073°56'5 6.9
2014-Oct-18 01:32N 40°47' W 073°59'7 7.2
2014-Oct-18 00:33N 40°41' W 074°02'9 6.7
2014-Oct-17 23:10N 40°32' W 074°00'5 7.2
2014-Oct-17 22:32N 40°29' W 073°55'7 6.9
2014-Oct-17 21:28N 40°23' W 073°51'5 5.2
2014-Oct-17 20:32N 40°28' W 073°53'7 6.3
2014-Oct-17 19:28N 40°31' W 074°00'6 6.1
2014-Oct-17 18:32N 40°36' W 074°03'6 6.0
2014-Oct-17 17:33N 40°42' W 074°02'8 1.1
2014-Oct-17 10:33N 40°49' W 073°58'8 8.1
2014-Oct-17 09:33N 40°42' W 074°02'7 6.6
2014-Oct-17 08:33N 40°35' W 074°02'9 2.3
2014-Oct-17 04:33N 40°29' W 073°54'5 4.9
2014-Oct-17 03:33N 40°31' W 073°59'5 5.5
2014-Oct-17 02:32N 40°36' W 074°03'6 5.9
2014-Oct-17 01:33N 40°42' W 074°02'6 5.9
2014-Oct-17 00:33N 40°47' W 073°60'2 0.4
2014-Oct-16 20:13N 40°49' W 073°58'711.0
2014-Oct-16 19:33N 40°42' W 074°02'5 4.8
2014-Oct-16 18:33N 40°41' W 074°08'1 0.2
2014-Oct-16 14:33N 40°40' W 074°08'6 6.2
2014-Oct-16 13:33N 40°43' W 074°01'1 1.1
2014-Oct-16 12:33N 40°44' W 074°01'13 6.3
2014-Oct-16 10:28N 40°31' W 074°00'9 3.7
2014-Oct-16 08:04N 40°26' W 073°51'4 5.8
2014-Oct-16 07:23N 40°29' W 073°54'5 6.0
2014-Oct-16 06:31N 40°31' W 074°01'6 5.6
2014-Oct-16 05:26N 40°37' W 074°03'5 6.0
2014-Oct-16 04:34N 40°42' W 074°02'14 2.0
2014-Oct-15 21:15N 40°56' W 073°54'2 2.5
2014-Oct-15 20:33N 40°54' W 073°55'9 8.7
2014-Oct-15 19:33N 40°46' W 074°00'16 7.8
2014-Oct-15 17:32N 40°31' W 073°58'9 6.9
2014-Oct-15 16:18N 40°23' W 073°52'3 3.4
2014-Oct-15 15:33N 40°26' W 073°51'5 5.3
2014-Oct-15 14:34N 40°29' W 073°55'6 5.6
2014-Oct-15 13:33N 40°33' W 074°02'9 6.8
2014-Oct-15 12:17N 40°41' W 074°02'6 7.9
2014-Oct-15 11:33N 40°47' W 074°00'7 7.4
2014-Oct-15 10:33N 40°53' W 073°56'2 0.5
2014-Oct-15 05:13N 40°56' W 073°54'0 0.2
2014-Oct-15 04:06N 40°56' W 073°54'1 1.7
2014-Oct-15 03:27N 40°55' W 073°55'6 7.1
2014-Oct-15 02:33N 40°49' W 073°58'7 7.0
2014-Oct-15 01:33N 40°43' W 074°02'7 6.6
2014-Oct-15 00:32N 40°39' W 074°09'3 3.1
2014-Oct-14 23:28N 40°42' W 074°09'0 0.0
2014-Oct-14 22:31N 40°42' W 074°09'0 0.0
2014-Oct-14 20:33N 40°42' W 074°09'1 1.1
2014-Oct-14 19:32N 40°41' W 074°08'0 0.3
2014-Oct-14 18:34N 40°41' W 074°08'2 1.7
2014-Oct-14 17:33N 40°40' W 074°09'3 2.6
2014-Oct-14 16:31N 40°38' W 074°12'0 0.0
2014-Oct-14 15:33N 40°38' W 074°12'2 2.4
2014-Oct-14 14:33N 40°39' W 074°09'2 1.4
2014-Oct-14 13:28N 40°41' W 074°09'0 0.0
2014-Oct-14 12:32N 40°41' W 074°09'0 0.0
2014-Oct-14 11:30N 40°41' W 074°09'0 0.1
2014-Oct-14 10:33N 40°41' W 074°09'0 0.0
2014-Oct-14 09:33N 40°41' W 074°09'1 0.7
2014-Oct-14 08:29N 40°41' W 074°09'2 1.6
2014-Oct-14 07:31N 40°40' W 074°09'4 3.7
2014-Oct-14 06:33N 40°40' W 074°04'1 1.2
2014-Oct-14 05:32N 40°41' W 074°04'1 1.0
2014-Oct-14 04:24N 40°40' W 074°04'3 2.9
2014-Oct-14 03:18N 40°41' W 074°08'1 0.7
2014-Oct-14 01:26N 40°42' W 074°09'0 0.0
2014-Oct-13 22:28N 40°42' W 074°09'0 0.0
2014-Oct-13 21:15N 40°42' W 074°09'0 0.0
2014-Oct-13 19:22N 40°42' W 074°09'1 1.0
2014-Oct-13 18:31N 40°42' W 074°08'4 3.6
2014-Oct-13 17:31N 40°39' W 074°05'6 6.8
2014-Oct-13 16:33N 40°45' W 074°01'7 7.0
2014-Oct-13 15:34N 40°51' W 073°57'5 4.7
2014-Oct-13 14:33N 40°56' W 073°55'7 7.4
2014-Oct-13 13:33N 40°49' W 073°58'7 7.1
2014-Oct-13 12:34N 40°42' W 074°02'7 6.8
2014-Oct-13 11:30N 40°35' W 074°02'7 6.8
2014-Oct-13 10:32N 40°30' W 073°56'7 7.1
2014-Oct-13 09:33N 40°24' W 073°52'4 4.1
2014-Oct-13 08:33N 40°28' W 073°52'8 8.4
2014-Oct-13 07:34N 40°33' W 074°01'8 7.3
2014-Oct-13 06:24N 40°41' W 074°02'5 6.1
2014-Oct-13 05:33N 40°46' W 074°00'10 3.1
2014-Oct-13 02:30N 40°55' W 073°55'7 7.7
2014-Oct-13 01:32N 40°48' W 073°59'7 6.8
2014-Oct-13 00:32N 40°41' W 074°02'10 6.9
2014-Oct-12 23:08N 40°31' W 074°00'6 2.2
2014-Oct-12 20:26N 40°28' W 073°54'8 8.3
2014-Oct-12 19:31N 40°33' W 074°02'8 7.7
2014-Oct-12 18:33N 40°40' W 074°03'6 6.2
2014-Oct-12 17:33N 40°46' W 074°00'1 0.2
2014-Oct-12 13:28N 40°47' W 073°60'7 7.5
2014-Oct-12 12:31N 40°40' W 074°03'9 7.5
2014-Oct-12 11:22N 40°32' W 074°00'11 5.8
2014-Oct-12 09:30N 40°24' W 073°51'6 6.8
2014-Oct-12 08:34N 40°29' W 073°55'8 8.4
2014-Oct-12 07:33N 40°35' W 074°02'8 7.8
2014-Oct-12 06:34N 40°43' W 074°01'7 6.4
2014-Oct-12 05:32N 40°49' W 073°58'7 5.1
2014-Oct-12 04:06N 40°56' W 073°55'4 2.9
2014-Oct-12 02:32N 40°52' W 073°56'7 7.5
2014-Oct-12 01:33N 40°45' W 074°01'7 6.9
2014-Oct-12 00:34N 40°39' W 074°03'7 7.2
2014-Oct-11 23:33N 40°32' W 074°01'11 5.2
2014-Oct-11 21:29N 40°24' W 073°51'6 6.0
2014-Oct-11 20:29N 40°29' W 073°55'7 7.8
2014-Oct-11 19:33N 40°34' W 074°02'8 8.1
2014-Oct-11 18:33N 40°42' W 074°02'7 6.7
2014-Oct-11 17:30N 40°49' W 073°58'1 0.3
2014-Oct-11 14:27N 40°49' W 073°58'9 9.7
2014-Oct-11 13:33N 40°41' W 074°02'18 5.1
2014-Oct-11 10:09N 40°26' W 073°51'5 7.0
2014-Oct-11 09:30N 40°29' W 073°55'7 7.8
2014-Oct-11 08:33N 40°34' W 074°02'9 8.6
2014-Oct-11 07:33N 40°43' W 074°01'  

Dump ship's entire track history